Flag for Canada Weather past 2 weeks in Coral Harbour, Nunavut Territory, Canada

Now
23 °F

Passing clouds.


Feels Like: 11 °F
Forecast: 21 / 32 °F
Wind: 13 mph from Northwest

Location: Coral Harbour

Current Time: Sep 22, 2014 at 11:33:42 PM

Latest Report: Sep 22, 2014 at 11:00 PM


Visibility: 15 mi

Pressure: 29.97 "Hg

Humidity: 80%

Dew point: 18 °F

Location of Coral HarbourLocation

Historic Weather in Coral Harbour — Graph

°F

Coral Harbour temperature yesterday

Maximum temperature yesterday: 36 °F (at 2:00 PM)
Minimum temperature yesterday: 23 °F (at 9:00 PM)
Average temperature yesterday: 29 °F

Past Weeks' High & Low Weather Summary

 TemperatureHumidityPressure
High43 °F (Sep 8, 1:00 PM)100% (Sep 9, 12:00 AM)29.97 "Hg (Sep 9, 12:00 AM)
Low21 °F (Sep 18, 2:00 AM)55% (Sep 11, 4:00 PM)29.28 "Hg (Sep 9, 10:00 AM)
Average31 °F79%29.71 "Hg
* Reported Sep 7 10:00 PM — Sep 22 10:00 PM, Coral Harbour, Weather by CustomWeather, © 2014

Note: Actual official high and low records may vary slightly from our data, if they occured in-between our weather recording intervals... More about our weather records

Advertising

Coral Harbour weather history for previous 24 hours

 ConditionsComfort  
Time TempWeatherWind HumidityBarometerVisibility
10:00 PM
Sep 22
25 °FPassing clouds.13 mph80%29.96 "Hg15 mi
9:00 PM23 °FPassing clouds.6 mph80%29.97 "Hg15 mi
8:00 PM23 °FPassing clouds.7 mph86%29.97 "Hg15 mi
7:00 PM25 °FPassing clouds.16 mph80%29.95 "Hg15 mi
6:00 PM28 °FPassing clouds.18 mph74%29.93 "Hg15 mi
5:00 PM30 °FPassing clouds.15 mph75%29.92 "Hg15 mi
4:00 PM30 °FPassing clouds.21 mph75%29.90 "Hg15 mi
3:00 PM30 °FScattered clouds.23 mph75%29.89 "Hg15 mi
2:00 PM30 °FScattered clouds.21 mph75%29.87 "Hg15 mi
1:00 PM30 °FPartly sunny.23 mph75%29.85 "Hg15 mi
12:00 PM30 °FBroken clouds.18 mph75%29.83 "Hg15 mi
11:00 AM30 °FBroken clouds.17 mph75%29.81 "Hg15 mi
10:00 AM30 °FBroken clouds.21 mph75%29.78 "Hg15 mi
9:00 AM28 °FBroken clouds.18 mph80%29.76 "Hg15 mi
8:00 AM28 °FBroken clouds.21 mph80%29.74 "Hg15 mi
7:00 AM27 °FScattered clouds.28 mph80%29.70 "Hg15 mi
6:00 AM27 °FPassing clouds.23 mph80%29.66 "Hg15 mi
5:00 AM27 °FPassing clouds.24 mph80%29.62 "Hg15 mi
4:00 AM27 °FClear.29 mph80%29.58 "Hg15 mi
3:00 AM27 °FClear.29 mph80%29.55 "Hg15 mi
2:00 AM27 °FClear.29 mph74%29.53 "Hg15 mi
1:00 AM25 °FClear.29 mph80%29.53 "Hg15 mi
12:00 AM25 °FPassing clouds.29 mph74%29.54 "Hg15 mi
11:00 PM
Sep 21
23 °FPassing clouds.28 mph74%29.55 "Hg15 mi
Weather by CustomWeather, © 2014

See weather overviewHow to use our weather pages